GGSE 3 DEB, 44043

Orbit data source: Space-Track

GGSE 3 DEB, 44043 is space debris in LEO originally from a launch on Tue, 09 Mar 1965 UTC launched from the Air Force Western Test Range (AFWTR). Debris objects in space refer to the collection of defunct objects orbiting the Earth. Examples of debris include non-operational satellites, rocket bodies, and fragments generated from explosions, collisions, or faulty payload assembly.

Loading next visibility...
Identifier
44043, 1965-016L
Orbit
LEO
Country
Flag of USUS
Related business
Manufacturer
Unknown
Mission
Spacecraft
Bus & Motor
Unknown
Mass
Unknown
Launch date (UTC)
1965-03-09 (60 years ago)
Launch vehicle
Unknown
Launch site
Air Force Western Test Range (AFWTR)
Object type
Payload
Rocket body
Debris
Shape & HBR
Unknown
Radar Cross Section
Small (<0.1 m²)

Expand to show TLE details & history
Last TLE update: 13 hours ago

TLE from 13 hours ago
0 GGSE 3 DEB
1 44043U 65016L   25242.65523326  .00001103  00000-0  73296-3 0  9995
2 44043  70.0744 209.8824 0020922 327.3851  32.5965 14.03760287334970
Epoch: 2025-08-30T15:43Z
TLE epoch observation values (Epoch: 2025-08-30T15:43:32.153Z)
Latitude
-0.00009°
Longitude
-5.08802°
Altitude
870.341 km
Speed
7.424 km/s
True Right ascension
13h 59m 31s
True Declination
0° 00' 00"
Sunlit
Object was in daylight at epoch
Visualization orbit readout
Latitude
Unknown
Longitude
Unknown
Altitude
Unknown
Speed
Unknown
Apparent Right ascension
Unknown
Apparent Declination
Unknown
Sunlit
N/A
Visualization observer readout
Local Sidereal Time
20:23:59
Azimuth
Unknown
Elevation
Unknown
Doppler factor
Unknown
Orbital elements
Apogee altitude
894.014 km
Perigee altitude
863.648 km
Semi-major axis
7,256.968 km
Eccentricity
0.00209
Inclination
70.0744°
RAAN
209.8824°
Arg. of periapsis
327.3851°
True anomaly
32.72594°
Mean anomaly
32.5965°
Eccentric anomaly
32.66119°
Mean motion
3.51083 °/min
Orbital period
102.54 mins
BSTAR
0.00073296
Loading maneuver chart data...
Computing Atmospheric mass density...
Loading historical data...
Loading historical data...
Loading historical data...
Loading historical data...
Loading historical data...
Loading historical data...
Loading historical data...

Documentation

Showing up to 5 results
|